Location: Dresden
(51.0483°N, 13.7137°E)
Time: 00:48:11
(UTC+02:00)

ISS - Visible Passes

Search period start: 22 October 2019 00:00
Search period end: 31 October 2019 23:00
Orbit: 411 x 421 km, 51.6° (Epoch: 21 October)

Date Brightness Start Highest point End Pass type
(mag) Time Alt. Az. Time Alt. Az. Time Alt. Az.
24 Oct -0.8 06:50:48 10° S 06:52:42 14° SE 06:54:37 10° ESE visible
26 Oct -1.8 06:48:56 10° SSW 06:51:53 28° SSE 06:54:49 10° E visible
27 Oct -1.3 05:00:54 10° SSW 05:03:25 20° SE 05:05:57 10° E visible
28 Oct -1.0 04:14:37 13° SE 04:14:59 13° SE 04:16:45 10° ESE visible
28 Oct -3.0 05:47:52 10° SW 05:51:10 51° SSE 05:54:27 10° E visible
29 Oct -2.6 05:01:14 25° SSW 05:02:36 37° SSE 05:05:45 10° E visible
30 Oct -1.6 04:14:50 24° ESE 04:14:50 24° ESE 04:16:58 10° E visible
30 Oct -3.7 05:47:44 14° WSW 05:50:32 82° SSE 05:53:54 10° E visible
31 Oct -3.6 05:01:13 50° SW 05:01:52 65° SSE 05:05:14 10° E visible
